Location: Ariel
(45.9570°N, 122.5700°W)
Time: 18:23:57
(UTC-07:00)

Tiros 1 - Pass Details

Date: 24 July 2019
Orbit: 631 x 664 km, 48.4° (Epoch: 24 August)

Event Time Altitude Azimuth Distance (km) Brightness Sun altitude
Rises 18:25:33 0° 287° (WNW) 2,997 12.0 22.8°
Reaches altitude 10° 18:28:15 10° 274° (W) 2,079 11.9 22.4°
Maximum altitude 18:32:06 24° 220° (SW) 1,344 9.5 21.7°
Drops below altitude 10° 18:35:56 10° 166° (SSE) 2,059 9.6 21.0°
Sets 18:38:36 0° 153° (SSE) 2,961 10.2 20.6°
